Time,TemperatureF,DewpointF,PressureIn,WindDirection,WindDirectionDegrees,WindSpeedMPH,WindSpeedGustMPH,Humidity,HourlyPrecipIn,Conditions,Clouds,dailyrainin,SoftwareType,DateUTC
2013-03-06 00:05:00,27.4,24.0,29.95,SW,224,0.0,2.0,88,0.00,,,0.00,weatherlink.com 1.10,2013-03-06 05:05:00,
2013-03-06 00:20:00,27.6,25.0,29.95,NW,315,1.0,3.0,88,0.00,,,0.00,weatherlink.com 1.10,2013-03-06 05:20:00,
2013-03-06 00:35:00,27.7,25.0,29.96,NNW,333,0.0,3.0,88,0.00,,,0.00,weatherlink.com 1.10,2013-03-06 05:35:00,
2013-03-06 00:50:00,27.9,25.0,29.96,NNE,19,0.0,5.0,88,0.00,,,0.00,weatherlink.com 1.10,2013-03-06 05:50:00,
2013-03-06 01:05:00,28.0,25.0,29.95,NNW,339,1.0,4.0,88,0.00,,,0.00,weatherlink.com 1.10,2013-03-06 06:05:00,
2013-03-06 01:20:00,28.1,25.0,29.95,WNW,293,0.0,3.0,88,0.00,,,0.00,weatherlink.com 1.10,2013-03-06 06:20:00,
2013-03-06 01:35:00,28.2,25.0,29.96,NNW,333,0.0,2.0,88,0.00,,,0.00,weatherlink.com 1.10,2013-03-06 06:35:00,
2013-03-06 01:50:00,28.4,25.0,29.96,NW,314,0.0,3.0,88,0.00,,,0.00,weatherlink.com 1.10,2013-03-06 06:50:00,
2013-03-06 02:05:00,28.5,26.0,29.96,NNW,328,0.0,3.0,89,0.00,,,0.00,weatherlink.com 1.10,2013-03-06 07:05:00,
2013-03-06 02:20:00,28.7,26.0,29.97,NW,325,0.0,4.0,89,0.00,,,0.00,weatherlink.com 1.10,2013-03-06 07:20:00,
2013-03-06 02:35:00,28.8,26.0,29.97,NNW,330,1.0,3.0,89,0.00,,,0.00,weatherlink.com 1.10,2013-03-06 07:35:00,
2013-03-06 02:50:00,29.0,26.0,29.97,NNW,328,0.0,2.0,88,0.00,,,0.00,weatherlink.com 1.10,2013-03-06 07:50:00,
2013-03-06 03:05:00,29.3,26.0,29.97,WNW,290,0.0,2.0,87,0.00,,,0.00,weatherlink.com 1.10,2013-03-06 08:05:00,
2013-03-06 03:20:00,29.6,26.0,29.97,SSE,165,0.0,4.0,87,0.00,,,0.00,weatherlink.com 1.10,2013-03-06 08:20:00,
2013-03-06 03:35:00,29.9,26.0,29.98,WNW,302,0.0,3.0,86,0.00,,,0.00,weatherlink.com 1.10,2013-03-06 08:35:00,
2013-03-06 03:50:00,30.2,27.0,29.98,NW,326,3.0,3.0,86,0.00,,,0.00,weatherlink.com 1.10,2013-03-06 08:50:00,
2013-03-06 04:05:00,30.4,26.0,29.99,North,1,0.0,2.0,85,0.00,,,0.00,weatherlink.com 1.10,2013-03-06 09:05:00,
2013-03-06 04:20:00,30.6,27.0,29.99,SE,124,0.0,3.0,85,0.00,,,0.00,weatherlink.com 1.10,2013-03-06 09:20:00,
2013-03-06 04:35:00,30.8,27.0,29.99,SW,221,0.0,5.0,85,0.00,,,0.00,weatherlink.com 1.10,2013-03-06 09:35:00,
2013-03-06 04:50:00,30.9,27.0,30.00,North,6,0.0,5.0,84,0.00,,,0.00,weatherlink.com 1.10,2013-03-06 09:50:00,
2013-03-06 05:05:00,31.0,27.0,30.00,SSW,195,1.0,4.0,84,0.00,,,0.00,weatherlink.com 1.10,2013-03-06 10:05:00,
2013-03-06 05:20:00,31.1,27.0,30.01,SW,214,1.0,4.0,84,0.00,,,0.00,weatherlink.com 1.10,2013-03-06 10:20:00,
2013-03-06 05:35:00,31.2,27.0,30.02,WNW,295,3.0,3.0,84,0.00,,,0.00,weatherlink.com 1.10,2013-03-06 10:35:00,
2013-03-06 05:50:00,31.2,27.0,30.03,ENE,73,2.0,3.0,83,0.00,,,0.00,weatherlink.com 1.10,2013-03-06 10:50:00,
2013-03-06 06:05:00,31.3,27.0,30.03,South,180,1.0,3.0,83,0.00,,,0.00,weatherlink.com 1.10,2013-03-06 11:05:00,
2013-03-06 06:20:00,31.3,26.0,30.04,NW,316,1.0,4.0,82,0.00,,,0.00,weatherlink.com 1.10,2013-03-06 11:20:00,
2013-03-06 06:35:00,31.3,26.0,30.05,NNW,333,0.0,4.0,82,0.00,,,0.00,weatherlink.com 1.10,2013-03-06 11:35:00,
2013-03-06 06:50:00,31.3,26.0,30.06,NNW,328,1.0,2.0,82,0.00,,,0.00,weatherlink.com 1.10,2013-03-06 11:50:00,
2013-03-06 07:06:00,31.3,26.0,30.07,WSW,241,0.0,1.0,82,0.00,,,0.00,weatherlink.com 1.10,2013-03-06 12:06:00,
2013-03-06 07:21:00,31.4,27.0,30.08,SSW,198,0.0,4.0,82,0.00,,,0.00,weatherlink.com 1.10,2013-03-06 12:21:00,
2013-03-06 07:36:00,31.5,26.0,30.09,NW,319,1.0,2.0,81,0.00,,,0.00,weatherlink.com 1.10,2013-03-06 12:36:00,
2013-03-06 07:51:00,31.6,26.0,30.10,SSE,147,0.0,1.0,81,0.00,,,0.00,weatherlink.com 1.10,2013-03-06 12:51:00,
2013-03-06 08:06:00,31.8,27.0,30.10,SE,146,0.0,2.0,81,0.00,,,0.00,weatherlink.com 1.10,2013-03-06 13:06:00,
2013-03-06 08:21:00,32.0,27.0,30.11,SSW,195,0.0,0.0,81,0.00,,,0.00,weatherlink.com 1.10,2013-03-06 13:21:00,
2013-03-06 08:36:00,32.2,27.0,30.12,NNW,332,0.0,2.0,81,0.00,,,0.00,weatherlink.com 1.10,2013-03-06 13:36:00,
2013-03-06 08:51:00,32.4,27.0,30.12,NNW,348,0.0,4.0,81,0.00,,,0.00,weatherlink.com 1.10,2013-03-06 13:51:00,
2013-03-06 09:06:00,32.7,28.0,30.13,East,88,0.0,0.0,81,0.00,,,0.00,weatherlink.com 1.10,2013-03-06 14:06:00,
2013-03-06 09:21:00,32.9,27.0,30.12,NE,43,0.0,2.0,80,0.00,,,0.00,weatherlink.com 1.10,2013-03-06 14:21:00,
2013-03-06 09:36:00,33.1,28.0,30.12,NW,319,0.0,4.0,80,0.00,,,0.00,weatherlink.com 1.10,2013-03-06 14:36:00,
2013-03-06 09:51:00,33.5,28.0,30.12,SE,127,1.0,3.0,80,0.00,,,0.00,weatherlink.com 1.10,2013-03-06 14:51:00,
2013-03-06 10:06:00,33.8,28.0,30.12,ESE,122,0.0,3.0,80,0.00,,,0.00,weatherlink.com 1.10,2013-03-06 15:06:00,
2013-03-06 10:21:00,34.1,28.0,30.12,SSE,160,0.0,3.0,79,0.00,,,0.00,weatherlink.com 1.10,2013-03-06 15:21:00,
2013-03-06 10:36:00,34.3,28.0,30.13,North,354,0.0,2.0,79,0.00,,,0.00,weatherlink.com 1.10,2013-03-06 15:36:00,
2013-03-06 10:51:00,34.8,29.0,30.14,NW,323,0.0,2.0,79,0.00,,,0.00,weatherlink.com 1.10,2013-03-06 15:51:00,
2013-03-06 11:06:00,35.1,29.0,30.15,NNE,12,0.0,2.0,78,0.00,,,0.00,weatherlink.com 1.10,2013-03-06 16:06:00,
2013-03-06 11:21:00,35.3,29.0,30.16,WSW,250,0.0,2.0,78,0.00,,,0.00,weatherlink.com 1.10,2013-03-06 16:21:00,
2013-03-06 11:37:00,35.5,29.0,30.16,NNW,339,0.0,4.0,77,0.00,,,0.00,weatherlink.com 1.10,2013-03-06 16:37:00,
2013-03-06 11:51:00,35.8,29.0,30.16,NW,321,0.0,4.0,76,0.00,,,0.00,weatherlink.com 1.10,2013-03-06 16:51:00,
2013-03-06 12:06:00,36.4,29.0,30.16,NW,314,1.0,3.0,75,0.00,,,0.00,weatherlink.com 1.10,2013-03-06 17:06:00,
2013-03-06 12:21:00,37.1,30.0,30.16,NNW,333,0.0,2.0,74,0.00,,,0.00,weatherlink.com 1.10,2013-03-06 17:21:00,
2013-03-06 12:36:00,37.8,30.0,30.16,West,260,0.0,2.0,72,0.00,,,0.00,weatherlink.com 1.10,2013-03-06 17:36:00,
2013-03-06 12:51:00,37.9,30.0,30.16,WSW,239,1.0,3.0,73,0.00,,,0.00,weatherlink.com 1.10,2013-03-06 17:51:00,
2013-03-06 13:06:00,38.1,29.0,30.16,West,278,0.0,3.0,71,0.00,,,0.00,weatherlink.com 1.10,2013-03-06 18:06:00,
2013-03-06 13:21:00,38.1,29.0,30.16,NNW,328,0.0,3.0,71,0.00,,,0.00,weatherlink.com 1.10,2013-03-06 18:21:00,
2013-03-06 13:36:00,38.7,30.0,30.15,SE,137,0.0,2.0,71,0.00,,,0.00,weatherlink.com 1.10,2013-03-06 18:36:00,
2013-03-06 13:51:00,39.2,30.0,30.14,South,170,1.0,1.0,69,0.00,,,0.00,weatherlink.com 1.10,2013-03-06 18:51:00,
2013-03-06 14:06:00,39.4,30.0,30.14,NNW,340,1.0,3.0,69,0.00,,,0.00,weatherlink.com 1.10,2013-03-06 19:06:00,
2013-03-06 14:21:00,39.1,30.0,30.14,NNW,327,0.0,2.0,70,0.00,,,0.00,weatherlink.com 1.10,2013-03-06 19:21:00,
2013-03-06 14:36:00,39.3,30.0,30.15,NNW,333,0.0,1.0,69,0.00,,,0.00,weatherlink.com 1.10,2013-03-06 19:36:00,
2013-03-06 14:51:00,38.7,30.0,30.15,NNW,346,0.0,3.0,70,0.00,,,0.00,weatherlink.com 1.10,2013-03-06 19:51:00,
2013-03-06 15:06:00,38.1,30.0,30.16,West,273,0.0,2.0,73,0.00,,,0.00,weatherlink.com 1.10,2013-03-06 20:06:00,
2013-03-06 15:21:00,37.6,30.0,30.16,NW,305,2.0,3.0,74,0.00,,,0.00,weatherlink.com 1.10,2013-03-06 20:21:00,
2013-03-06 15:36:00,37.8,30.0,30.15,NW,321,1.0,3.0,74,0.00,,,0.00,weatherlink.com 1.10,2013-03-06 20:36:00,
2013-03-06 15:51:00,38.3,30.0,30.16,NW,322,0.0,2.0,72,0.00,,,0.00,weatherlink.com 1.10,2013-03-06 20:51:00,
2013-03-06 16:06:00,38.6,30.0,30.16,NW,312,0.0,2.0,70,0.00,,,0.00,weatherlink.com 1.10,2013-03-06 21:06:00,
2013-03-06 16:21:00,39.0,30.0,30.16,NNW,333,1.0,1.0,69,0.00,,,0.00,weatherlink.com 1.10,2013-03-06 21:21:00,
2013-03-06 16:36:00,39.4,30.0,30.16,WNW,283,0.0,2.0,69,0.00,,,0.00,weatherlink.com 1.10,2013-03-06 21:36:00,
2013-03-06 16:51:00,39.8,30.0,30.17,North,354,0.0,0.0,67,0.00,,,0.00,weatherlink.com 1.10,2013-03-06 21:51:00,
2013-03-06 17:06:00,39.9,29.0,30.16,SE,146,0.0,0.0,66,0.00,,,0.00,weatherlink.com 1.10,2013-03-06 22:06:00,
2013-03-06 17:21:00,39.5,29.0,30.17,SSE,148,0.0,0.0,67,0.00,,,0.00,weatherlink.com 1.10,2013-03-06 22:21:00,
2013-03-06 17:36:00,39.1,29.0,30.17,SSE,148,0.0,0.0,68,0.00,,,0.00,weatherlink.com 1.10,2013-03-06 22:36:00,
2013-03-06 17:51:00,38.8,29.0,30.18,SSE,148,0.0,0.0,68,0.00,,,0.00,weatherlink.com 1.10,2013-03-06 22:51:00,
2013-03-06 18:06:00,38.2,30.0,30.18,SSE,148,0.0,0.0,71,0.00,,,0.00,weatherlink.com 1.10,2013-03-06 23:06:00,
2013-03-06 18:21:00,37.4,30.0,30.18,SSE,148,0.0,0.0,74,0.00,,,0.00,weatherlink.com 1.10,2013-03-06 23:21:00,
2013-03-06 18:36:00,37.1,30.0,30.19,SSE,148,0.0,0.0,75,0.00,,,0.00,weatherlink.com 1.10,2013-03-06 23:36:00,
2013-03-06 19:06:00,36.4,29.0,30.19,SSE,148,0.0,0.0,75,0.00,,,0.00,weatherlink.com 1.10,2013-03-07 00:06:00,
2013-03-06 19:21:00,35.7,30.0,30.19,NW,316,0.0,0.0,79,0.00,,,0.00,weatherlink.com 1.10,2013-03-07 00:21:00,
2013-03-06 19:36:00,35.7,30.0,30.19,SE,125,0.0,0.0,79,0.00,,,0.00,weatherlink.com 1.10,2013-03-07 00:36:00,
2013-03-06 19:51:00,35.4,30.0,30.19,SE,125,0.0,0.0,80,0.00,,,0.00,weatherlink.com 1.10,2013-03-07 00:51:00,
2013-03-06 20:06:00,35.3,30.0,30.20,SE,125,0.0,0.0,81,0.00,,,0.00,weatherlink.com 1.10,2013-03-07 01:06:00,
2013-03-06 20:21:00,35.0,30.0,30.20,SE,125,0.0,0.0,82,0.00,,,0.00,weatherlink.com 1.10,2013-03-07 01:21:00,
2013-03-06 20:36:00,35.1,30.0,30.20,NW,305,2.0,4.0,81,0.00,,,0.00,weatherlink.com 1.10,2013-03-07 01:36:00,
2013-03-06 20:51:00,35.1,30.0,30.20,WNW,294,1.0,4.0,82,0.00,,,0.00,weatherlink.com 1.10,2013-03-07 01:51:00,
2013-03-06 21:06:00,34.8,30.0,30.21,WNW,301,2.0,3.0,82,0.00,,,0.00,weatherlink.com 1.10,2013-03-07 02:06:00,
2013-03-06 21:21:00,34.7,30.0,30.21,NW,307,1.0,3.0,83,0.00,,,0.00,weatherlink.com 1.10,2013-03-07 02:21:00,
2013-03-06 21:36:00,34.7,30.0,30.21,NW,311,1.0,3.0,83,0.00,,,0.00,weatherlink.com 1.10,2013-03-07 02:36:00,
2013-03-06 21:51:00,34.6,30.0,30.22,WNW,301,2.0,3.0,82,0.00,,,0.00,weatherlink.com 1.10,2013-03-07 02:51:00,
2013-03-06 22:07:00,34.5,30.0,30.22,WNW,287,1.0,3.0,82,0.00,,,0.00,weatherlink.com 1.10,2013-03-07 03:07:00,
2013-03-06 22:22:00,34.3,30.0,30.22,WNW,301,2.0,2.0,83,0.00,,,0.00,weatherlink.com 1.10,2013-03-07 03:22:00,
2013-03-06 22:37:00,34.0,30.0,30.22,WNW,300,2.0,3.0,84,0.00,,,0.00,weatherlink.com 1.10,2013-03-07 03:37:00,
2013-03-06 22:52:00,33.7,30.0,30.22,WNW,302,1.0,2.0,85,0.00,,,0.00,weatherlink.com 1.10,2013-03-07 03:52:00,
2013-03-06 23:07:00,33.6,30.0,30.22,NW,304,2.0,3.0,85,0.00,,,0.00,weatherlink.com 1.10,2013-03-07 04:07:00,
2013-03-06 23:22:00,33.4,30.0,30.22,NW,314,1.0,3.0,86,0.00,,,0.00,weatherlink.com 1.10,2013-03-07 04:22:00,
2013-03-06 23:37:00,33.7,30.0,30.22,WNW,303,3.0,4.0,85,0.00,,,0.00,weatherlink.com 1.10,2013-03-07 04:37:00,
2013-03-06 23:52:00,33.7,30.0,30.22,NW,312,1.0,3.0,85,0.00,,,0.00,weatherlink.com 1.10,2013-03-07 04:52:00,